Date String (YYYY-MM-DD hh:mm:ss) UTC,Instrument flags,absolute air pressure of the measurement (hPa),sample flow rate (lpm),inlet stack bypass flow (lpm),air temperature of the measurement (°C),ambient temperature measured by the external sensor (°C),aerosol sample conditioner tube jacket temperature (°C),OPC LED temperature (°C),internal box temperature (°C),relative humidity of the measurement (%),span deviation,mass concentration of particles derived from Lorenz-Mie calculation of OPC scattering (μg/m³),mass concentration of particles derived from Lorenz-Mie calculation of OPC scattering (μg/m³),mass concentration of particles derived from Lorenz-Mie calculation of OPC scattering (μg/m³)
DateTimeUTC,F1_M11,P_M11,Q1_M11,Q2_M11,T1_M11,T2_M11,T3_M11,T4_M11,T5_M11,U1_M11,ZSPAN_M11,X0_M11,X2_M11,X1_M11
2024-01-29 00:00:00,SystemResetWarning,0836.7,4.99,000.00,026.2,024.4,000.0,034.1,027.7,11.6,0000.0,0007.54,0004.58,0004.15
2024-01-29 00:01:00,SystemResetWarning,0836.7,5.00,000.00,026.1,022.7,000.0,034.1,027.5,11.7,0000.0,0007.29,0004.51,0004.11
2024-01-29 00:02:00,SystemResetWarning,0836.7,5.01,000.00,026.0,022.4,000.0,034.1,027.2,11.7,0000.0,0007.16,0004.46,0004.11
2024-01-29 00:03:00,SystemResetWarning,0836.7,5.00,000.00,025.8,022.7,000.0,034.0,026.8,12.0,0000.0,0007.50,0004.45,0004.11
2024-01-29 00:04:00,SystemResetWarning,0836.7,5.00,000.00,025.7,023.0,000.0,034.0,026.8,12.2,0000.0,0007.80,0004.45,0004.11
2024-01-29 00:05:00,SystemResetWarning,0836.7,5.00,000.00,025.7,023.4,000.0,034.0,026.9,12.2,0000.0,0007.83,0004.45,0004.12
2024-01-29 00:06:00,SystemResetWarning,0836.8,5.00,000.00,025.7,023.7,000.0,034.0,027.0,12.2,0000.0,0007.93,0004.48,0004.13
2024-01-29 00:07:00,SystemResetWarning,0836.8,5.01,000.00,025.7,024.0,000.0,033.9,027.1,12.2,0000.0,0007.98,0004.49,0004.14
2024-01-29 00:08:00,SystemResetWarning,0836.8,5.00,000.00,025.8,024.2,000.0,033.9,027.2,12.2,0000.0,0008.08,0004.48,0004.14
2024-01-29 00:09:00,SystemResetWarning,0836.8,5.00,000.00,025.8,024.4,000.0,033.9,027.2,12.1,0000.0,0008.09,0004.49,0004.15
2024-01-29 00:10:00,SystemResetWarning,0836.8,5.00,000.00,025.8,024.6,000.0,033.9,027.3,12.1,0000.0,0008.01,0004.47,0004.16
2024-01-29 00:11:00,SystemResetWarning,0836.8,5.00,000.00,025.8,024.7,000.0,033.9,027.3,12.1,0000.0,0007.95,0004.46,0004.18
2024-01-29 00:12:00,SystemResetWarning,0836.8,5.00,000.00,025.9,024.8,000.0,034.0,027.4,12.0,0000.0,0008.14,0004.50,0004.19
2024-01-29 00:13:00,SystemResetWarning,0836.8,5.00,000.00,025.9,024.9,000.0,034.0,027.4,12.0,0000.0,0008.16,0004.51,0004.20
2024-01-29 00:14:00,SystemResetWarning,0836.8,5.00,000.00,026.0,025.0,000.0,034.0,027.5,12.0,0000.0,0007.95,0004.52,0004.21
2024-01-29 00:15:00,SystemResetWarning,0836.8,5.00,000.00,026.0,025.1,000.0,034.0,027.5,12.0,0000.0,0007.62,0004.51,0004.21
2024-01-29 00:16:00,SystemResetWarning,0836.8,4.99,000.00,026.0,025.1,000.0,034.0,027.6,11.9,0000.0,0007.67,0004.55,0004.22
2024-01-29 00:17:00,SystemResetWarning,0836.8,5.00,000.00,026.1,025.2,000.0,034.1,027.6,11.9,0000.0,0007.64,0004.55,0004.23
2024-01-29 00:18:00,SystemResetWarning,0836.8,5.00,000.00,026.1,025.2,000.0,034.1,027.6,12.0,0000.0,0007.68,0004.57,0004.24
2024-01-29 00:19:00,SystemResetWarning,0836.9,5.00,000.00,026.1,025.3,000.0,034.1,027.7,12.0,0000.0,0007.78,0004.59,0004.24
2024-01-29 00:20:00,SystemResetWarning,0836.9,4.99,000.00,026.2,025.3,000.0,034.1,027.7,12.0,0000.0,0007.84,0004.59,0004.24
2024-01-29 00:21:00,SystemResetWarning,0836.9,5.00,000.00,026.2,025.4,000.0,034.2,027.7,11.9,0000.0,0007.82,0004.58,0004.25
2024-01-29 00:22:00,SystemResetWarning,0836.9,4.99,000.00,026.2,025.4,000.0,034.2,027.8,11.9,0000.0,0007.85,0004.59,0004.25
2024-01-29 00:23:00,SystemResetWarning,0836.9,5.00,000.00,026.2,024.1,000.0,034.2,027.7,11.9,0000.0,0007.81,0004.60,0004.25
2024-01-29 00:24:00,SystemResetWarning,0836.8,5.01,000.00,026.1,022.3,000.0,034.2,027.4,12.1,0000.0,0007.87,0004.62,0004.25
2024-01-29 00:25:00,SystemResetWarning,0836.8,5.01,000.00,026.0,022.0,000.0,034.1,027.1,12.2,0000.0,0007.94,0004.66,0004.28
2024-01-29 00:26:00,SystemResetWarning,0836.9,5.01,000.00,025.8,022.4,000.0,034.1,026.7,12.6,0000.0,0007.91,0004.68,0004.30
2024-01-29 00:27:00,SystemResetWarning,0836.8,4.99,000.00,025.7,022.7,000.0,034.1,026.7,12.6,0000.0,0007.95,0004.71,0004.33
2024-01-29 00:28:00,SystemResetWarning,0836.9,5.00,000.00,025.7,023.1,000.0,034.0,026.8,12.4,0000.0,0008.37,0004.72,0004.36
2024-01-29 00:29:00,SystemResetWarning,0836.9,5.00,000.00,025.7,023.4,000.0,034.0,026.9,12.4,0000.0,0008.39,0004.73,0004.38
2024-01-29 00:30:00,SystemResetWarning,0836.9,5.00,000.00,025.7,023.7,000.0,034.0,026.9,12.3,0000.0,0008.45,0004.70,0004.35
2024-01-29 00:31:00,SystemResetWarning,0837.0,5.01,000.00,025.7,023.9,000.0,033.9,027.0,12.2,0000.0,0008.80,0004.66,0004.30
2024-01-29 00:32:00,SystemResetWarning,0837.0,4.98,000.00,025.7,024.1,000.0,033.9,027.1,12.2,0000.0,0008.77,0004.61,0004.25
2024-01-29 00:33:00,SystemResetWarning,0836.9,5.01,000.00,025.7,024.3,000.0,033.9,027.1,12.2,0000.0,0008.72,0004.57,0004.21
2024-01-29 00:34:00,SystemResetWarning,0837.0,5.01,000.00,025.7,024.4,000.0,033.9,027.2,12.1,0000.0,0008.73,0004.53,0004.16
2024-01-29 00:35:00,SystemResetWarning,0836.9,5.00,000.00,025.8,024.5,000.0,033.9,027.2,12.1,0000.0,0008.62,0004.48,0004.11
2024-01-29 00:36:00,SystemResetWarning,0837.0,5.00,000.00,025.8,024.6,000.0,033.9,027.3,12.1,0000.0,0008.51,0004.41,0004.05
2024-01-29 00:37:00,SystemResetWarning,0837.0,5.00,000.00,025.8,024.7,000.0,033.9,027.3,12.1,0000.0,0008.42,0004.33,0003.97
2024-01-29 00:38:00,SystemResetWarning,0837.1,5.00,000.00,025.8,024.8,000.0,034.0,027.4,12.0,0000.0,0008.36,0004.23,0003.89
2024-01-29 00:39:00,SystemResetWarning,0837.1,5.01,000.00,025.9,024.8,000.0,034.0,027.4,12.0,0000.0,0008.06,0004.15,0003.82
2024-01-29 00:40:00,SystemResetWarning,0837.1,5.00,000.00,025.9,024.9,000.0,034.0,027.4,12.0,0000.0,0007.68,0004.09,0003.73
2024-01-29 00:41:00,SystemResetWarning,0837.1,5.00,000.00,025.9,024.9,000.0,034.0,027.4,12.0,0000.0,0007.68,0004.05,0003.68
2024-01-29 00:42:00,SystemResetWarning,0837.1,5.00,000.00,026.0,025.0,000.0,034.0,027.5,12.2,0000.0,0007.27,0004.06,0003.66
2024-01-29 00:43:00,SystemResetWarning,0837.1,5.00,000.00,026.0,025.0,000.0,034.0,027.5,12.1,0000.0,0007.95,0004.06,0003.66
2024-01-29 00:44:00,SystemResetWarning,0837.2,5.00,000.00,026.0,025.0,000.0,034.1,027.5,12.1,0000.0,0008.34,0004.07,0003.64
2024-01-29 00:45:00,SystemResetWarning,0837.1,5.00,000.00,026.0,025.1,000.0,034.1,027.5,12.1,0000.0,0008.94,0004.04,0003.61
2024-01-29 00:46:00,SystemResetWarning,0837.1,5.00,000.00,026.0,025.1,000.0,034.1,027.6,12.1,0000.0,0009.15,0003.98,0003.57
2024-01-29 00:47:00,SystemResetWarning,0837.2,5.00,000.00,026.1,025.1,000.0,034.1,027.6,12.1,0000.0,0009.27,0003.94,0003.55
2024-01-29 00:48:00,SystemResetWarning,0837.2,5.00,000.00,026.1,025.1,000.0,034.1,027.6,12.1,0000.0,0009.21,0003.91,0003.53
2024-01-29 00:49:00,SystemResetWarning,0837.2,5.00,000.00,026.1,025.1,000.0,034.2,027.6,12.1,0000.0,0009.50,0003.90,0003.50
2024-01-29 00:50:00,SystemResetWarning,0837.2,5.00,000.00,026.1,025.1,000.0,034.2,027.6,12.0,0000.0,0009.89,0003.87,0003.47
2024-01-29 00:51:00,SystemResetWarning,0837.2,5.00,000.00,026.1,025.2,000.0,034.2,027.6,12.0,0000.0,0009.99,0003.79,0003.44
2024-01-29 00:52:00,SystemResetWarning,0837.2,5.00,000.00,026.2,025.2,000.0,034.2,027.7,12.0,0000.0,0010.26,0003.75,0003.38
2024-01-29 00:53:00,SystemResetWarning,0837.2,5.00,000.00,026.2,025.2,000.0,034.2,027.7,12.0,0000.0,0010.40,0003.71,0003.33
2024-01-29 00:54:00,SystemResetWarning,0837.2,5.00,000.00,026.2,025.2,000.0,034.3,027.7,12.0,0000.0,0009.78,0003.66,0003.29
2024-01-29 00:55:00,SystemResetWarning,0837.2,5.01,000.00,026.2,025.2,000.0,034.3,027.7,12.0,0000.0,0009.55,0003.63,0003.27
2024-01-29 00:56:00,SystemResetWarning,0837.2,5.00,000.00,026.2,025.2,000.0,034.3,027.7,12.0,0000.0,0008.81,0003.61,0003.26
2024-01-29 00:57:00,SystemResetWarning,0837.2,5.00,000.00,026.2,025.2,000.0,034.3,027.7,11.9,0000.0,0008.54,0003.62,0003.27
2024-01-29 00:58:00,SystemResetWarning,0837.2,5.00,000.00,026.2,025.2,000.0,034.3,027.7,11.9,0000.0,0008.32,0003.64,0003.28
2024-01-29 00:59:00,SystemResetWarning,0837.2,5.00,000.00,026.3,025.3,000.0,034.4,027.7,11.8,0000.0,0008.38,0003.65,0003.29
